EW7868 Weather Reports


time (UTC)temp
C
wind
direction
speed
KPH
gust
KPH
rain 1hr
cm
rain 24hr
cm
rain mn
cm
humidity
%
barometer
mb
20260906121630 20 90 0.0 3.2 0.00 0.00 0.00 99 1017.0
20260906121126 20 63 0.0 3.2 0.00 0.00 0.00 99 1016.7
20260906120621 20 98 0.0 1.6 0.00 0.00 0.00 99 1016.8
20260906120119 20 90 0.0 0.0 0.00 0.00 0.00 99 1016.7
20260906115619 20 74 0.0 0.0 0.00 0.00 0.00 99 1016.8
20260906115115 20 90 0.0 0.0 0.00 0.00 0.00 99 1016.6
20260906114614 20 96 1.6 3.2 0.00 0.00 0.00 99 1016.4
20260906114109 20 96 0.0 1.6 0.00 0.00 0.00 99 1016.2
20260906113608 20 84 3.2 3.2 0.00 0.00 0.00 99 1016.2
20260906113104 20 90 3.2 4.8 0.00 0.00 0.00 99 1016.4
20260906112603 20 66 0.0 1.6 0.00 0.00 0.00 99 1016.4
20260906112100 20 90 0.0 1.6 0.00 0.00 0.00 99 1016.1
20260906111559 20 90 0.0 1.6 0.00 0.00 0.00 99 1015.9
20260906111055 20 90 0.0 0.0 0.00 0.00 0.00 99 1015.8
20260906110554 20 90 0.0 1.6 0.00 0.00 0.00 99 1015.9
20260906110054 20 106 0.0 1.6 0.00 0.00 0.00 99 1015.8
20260906105549 20 90 0.0 3.2 0.00 0.00 0.00 99 1015.8
20260906105045 20 114 0.0 1.6 0.00 0.00 0.00 99 1015.8
20260906104543 20 106 0.0 3.2 0.00 0.00 0.00 99 1015.6
20260906104038 20 109 0.0 3.2 0.00 0.00 0.00 99 1015.4
20260906103536 20 90 0.0 1.6 0.00 0.00 0.00 99 1015.7
20260906103032 20 90 0.0 3.2 0.00 0.00 0.00 99 1015.3
20260906102531 20 90 0.0 0.0 0.00 0.00 0.00 99 1015.7
20260906102027 20 105 0.0 3.2 0.00 0.00 0.00 99 1015.4
20260906101521 20 82 0.0 0.0 0.00 0.00 0.00 99 1015.4
20260906101016 20 90 0.0 0.0 0.00 0.00 0.00 98 1015.4
20260906100512 20 83 0.0 1.6 0.00 0.00 0.00 98 1015.4
20260906100006 20 90 0.0 1.6 0.00 0.00 0.00 98 1015.4
20260906095501 20 111 0.0 0.0 0.00 0.00 0.00 98 1015.2
20260906094956 21 99 0.0 3.2 0.00 0.00 0.00 98 1015.1
20260906094455 20 90 3.2 3.2 0.00 0.00 0.00 97 1015.1
20260906093951 21 106 0.0 1.6 0.00 0.00 0.00 97 1015.2
20260906093447 21 78 0.0 3.2 0.00 0.00 0.00 97 1015.1
20260906092942 21 97 0.0 0.0 0.00 0.00 0.00 97 1015.2
20260906092442 21 74 0.0 3.2 0.00 0.00 0.00 96 1014.8
20260906091937 21 75 0.0 1.6 0.00 0.00 0.00 96 1015.0
20260906091432 21 90 0.0 3.2 0.00 0.00 0.00 96 1015.1
20260906090929 21 74 1.6 1.6 0.00 0.00 0.00 95 1015.0
20260906090424 21 114 0.0 3.2 0.00 0.00 0.00 95 1015.0
20260906085924 21 81 0.0 0.0 0.00 0.00 0.00 95 1014.9
20260906085418 21 99 0.0 3.2 0.00 0.00 0.00 94 1014.9
20260906084917 21 90 0.0 3.2 0.00 0.00 0.00 94 1015.0
20260906084412 21 96 1.6 3.2 0.00 0.00 0.00 94 1015.0
20260906083911 21 107 3.2 4.8 0.00 0.00 0.00 94 1015.1
20260906083407 21 98 1.6 6.4 0.00 0.00 0.00 93 1014.9
20260906082906 22 90 1.6 8.0 0.00 0.00 0.00 94 1015.0
20260906082401 21 98 0.0 4.8 0.00 0.00 0.00 94 1015.0
20260906081857 21 106 0.0 8.0 0.00 0.00 0.00 94 1014.9
20260906081352 21 126 0.0 4.8 0.00 0.00 0.00 94 1014.9
20260906080848 21 82 0.0 4.8 0.00 0.00 0.00 94 1015.0
20260906080345 21 90 6.4 6.4 0.00 0.00 0.00 95 1014.9
20260906075844 21 95 3.2 4.8 0.00 0.00 0.00 94 1014.8
20260906075338 21 99 0.0 4.8 0.00 0.00 0.00 94 1014.9
20260906074834 21 114 0.0 3.2 0.00 0.00 0.00 94 1015.1
20260906074334 21 90 0.0 1.6 0.00 0.00 0.00 94 1015.3
20260906073833 22 90 0.0 3.2 0.00 0.00 0.00 94 1015.3
20260906073328 22 105 1.6 6.4 0.00 0.00 0.00 93 1015.3
20260906072824 22 102 3.2 6.4 0.00 0.00 0.00 93 1015.1
20260906072320 22 102 3.2 3.2 0.00 0.00 0.00 93 1015.1
20260906071816 22 114 0.0 4.8 0.00 0.00 0.00 93 1015.3
20260906071315 22 90 3.2 6.4 0.00 0.00 0.00 92 1015.3
20260906070812 22 75 0.0 6.4 0.00 0.00 0.00 92 1015.2
20260906070308 22 102 3.2 4.8 0.00 0.00 0.00 92 1015.2
20260906065802 22 72 6.4 6.4 0.00 0.00 0.00 91 1015.3
20260906065257 22 107 0.0 4.8 0.00 0.00 0.00 91 1015.2
20260906064753 22 102 0.0 4.8 0.00 0.00 0.00 91 1015.2
20260906064249 22 90 0.0 3.2 0.00 0.00 0.00 91 1015.3
20260906063743 22 82 1.6 4.8 0.00 0.00 0.00 90 1015.4
20260906063239 22 106 3.2 4.8 0.00 0.00 0.00 90 1015.3
20260906062734 22 63 0.0 6.4 0.00 0.00 0.00 90 1015.3
20260906062233 22 102 3.2 4.8 0.00 0.00 0.00 90 1015.4
20260906061729 23 85 3.2 4.8 0.00 0.00 0.00 89 1015.3
20260906061225 23 306 1.6 4.8 0.00 0.00 0.00 89 1015.2
20260906060720 23 123 3.2 6.4 0.00 0.00 0.00 89 1015.4
20260906060218 23 90 0.0 6.4 0.00 0.00 0.00 89 1015.4
20260906055713 23 90 0.0 3.2 0.00 0.00 0.00 89 1015.3
20260906055208 23 80 6.4 6.4 0.00 0.00 0.00 89 1015.4
20260906054703 23 84 1.6 4.8 0.00 0.00 0.00 89 1015.4
20260906054158 23 90 0.0 3.2 0.00 0.00 0.00 89 1015.1
20260906053655 23 90 0.0 3.2 0.00 0.00 0.00 89 1015.2
20260906053150 23 106 3.2 6.4 0.00 0.00 0.00 89 1015.2
20260906052645 23 90 1.6 3.2 0.00 0.00 0.00 89 1015.1
20260906052142 23 67 3.2 8.0 0.00 0.00 0.00 89 1015.0
20260906051638 23 80 6.4 8.0 0.00 0.00 0.00 89 1014.8
20260906051137 23 96 0.0 8.0 0.00 0.00 0.00 89 1014.9
20260906050633 23 119 3.2 6.4 0.00 0.00 0.00 89 1014.7
20260906050128 23 97 4.8 6.4 0.00 0.00 0.00 89 1014.7
20260906045626 23 102 0.0 6.4 0.00 0.00 0.00 89 1014.8
20260906045122 23 90 0.0 4.8 0.00 0.00 0.00 89 1014.8
20260906044618 23 90 1.6 4.8 0.00 0.00 0.00 89 1014.6
20260906044112 23 81 3.2 8.0 0.00 0.00 0.00 89 1014.8
20260906043609 23 69 0.0 4.8 0.00 0.00 0.00 88 1014.5
20260906043104 23 86 11.3 11.3 0.00 0.00 0.00 88 1014.3
20260906042603 23 93 12.9 12.9 0.00 0.00 0.00 88 1014.4
20260906042058 23 82 6.4 11.3 0.00 0.00 0.00 88 1014.5
20260906041554 23 90 4.8 9.7 0.00 0.00 0.00 88 1014.3
20260906041049 23 90 4.8 11.3 0.00 0.00 0.00 88 1014.4
20260906040544 23 94 4.8 11.3 0.00 0.00 0.00 88 1014.3
20260906040039 23 97 0.0 4.8 0.00 0.00 0.00 89 1014.4
20260906035534 23 97 1.6 4.8 0.00 0.00 0.00 89 1014.1
20260906035031 23 90 1.6 6.4 0.00 0.00 0.00 89 1014.4
20260906034530 23 83 1.6 6.4 0.00 0.00 0.00 88 1014.4
20260906034025 23 74 1.6 4.8 0.00 0.00 0.00 88 1014.3
20260906033520 23 73 3.2 4.8 0.00 0.00 0.00 88 1014.2
20260906033016 23 77 0.0 3.2 0.00 0.00 0.00 88 1014.2
20260906032512 23 95 3.2 4.8 0.00 0.00 0.00 88 1014.1
20260906032007 23 90 8.0 8.0 0.00 0.00 0.00 88 1014.1
20260906031502 23 114 4.8 8.0 0.00 0.00 0.00 88 1014.1
20260906030957 23 97 1.6 3.2 0.00 0.00 0.00 88 1014.3
20260906030451 23 117 3.2 11.3 0.00 0.00 0.00 88 1014.1
20260906025946 23 97 6.4 8.0 0.00 0.00 0.00 88 1014.2
20260906025440 23 82 1.6 6.4 0.00 0.00 0.00 88 1014.4
20260906024939 22 160 0.0 9.7 0.00 0.00 0.00 88 1014.0
20260906024438 22 106 3.2 8.0 0.00 0.00 0.00 88 1014.1
20260906023933 22 105 0.0 8.0 0.00 0.00 0.00 89 1014.1
20260906023429 22 70 3.2 11.3 0.00 0.00 0.00 88 1014.2
20260906022924 22 86 4.8 11.3 0.00 0.00 0.00 88 1014.2
20260906022419 22 79 8.0 8.0 0.00 0.00 0.00 88 1014.3
20260906021915 22 104 4.8 8.0 0.00 0.00 0.00 88 1014.2
20260906021414 22 83 0.0 6.4 0.00 0.00 0.00 88 1014.3
20260906020909 22 112 11.3 17.7 0.00 0.00 0.00 87 1014.2
20260906020403 23 90 0.0 8.0 0.00 0.00 0.00 87 1014.3
20260906015858 23 114 4.8 8.0 0.00 0.00 0.00 87 1014.2
20260906015357 23 90 6.4 11.3 0.00 0.00 0.00 87 1014.2
20260906014857 23 85 6.4 8.0 0.00 0.00 0.00 86 1014.0
20260906014357 23 243 4.8 9.7 0.00 0.00 0.00 86 1014.1
20260906013853 23 87 4.8 6.4 0.00 0.00 0.00 87 1014.1
20260906013348 23 95 3.2 6.4 0.00 0.00 0.00 87 1014.1
20260906012844 23 105 1.6 9.7 0.00 0.00 0.00 87 1014.0
20260906012339 23 90 1.6 6.4 0.00 0.00 0.00 88 1014.0
20260906011838 23 71 4.8 8.0 0.00 0.00 0.00 88 1013.8
20260906011333 23 81 0.0 4.8 0.00 0.00 0.00 88 1013.9
20260906010829 23 76 0.0 6.4 0.00 0.00 0.00 88 1013.6
20260906010325 23 84 3.2 6.4 0.00 0.00 0.00 87 1013.9
20260906005821 23 97 8.0 8.0 0.00 0.00 0.00 87 1014.1
20260906005319 23 90 3.2 12.9 0.00 0.00 0.00 86 1013.6
20260906004819 24 100 0.0 11.3 0.00 0.00 0.00 86 1013.8
20260906004318 24 81 0.0 6.4 0.00 0.00 0.00 85 1013.8
20260906003814 24 90 1.6 3.2 0.00 0.00 0.00 85 1013.5
20260906003309 25 106 0.0 8.0 0.00 0.00 0.00 84 1013.5
20260906002805 25 117 0.0 8.0 0.00 0.00 0.00 84 1013.4
20260906002306 25 90 0.0 8.0 0.00 0.00 0.00 83 1013.2
20260906001800 25 92 11.3 14.5 0.00 0.00 0.00 82 1013.2
20260906001254 25 113 3.2 4.8 0.00 0.00 0.00 82 1013.2
20260906000749 25 95 6.4 8.0 0.00 0.00 0.00 81 1013.0
20260906000244 25 114 1.6 9.7 0.00 0.00 0.00 80 1013.1
20260905235739 26 87 6.4 9.7 0.00 0.00 0.00 79 1012.9
20260905235238 26 210 0.0 11.3 0.00 0.00 0.00 78 1013.0
20260905234734 27 80 3.2 8.0 0.00 0.00 0.00 77 1012.9
20260905234229 27 122 4.8 8.0 0.00 0.00 0.00 76 1013.0
20260905233725 27 76 0.0 4.8 0.00 0.00 0.00 75 1013.1
20260905233224 27 90 4.8 8.0 0.00 0.00 0.00 75 1013.0
20260905232719 28 109 0.0 4.8 0.00 0.00 0.00 75 1013.0
20260905232215 27 101 3.2 6.4 0.00 0.00 0.00 75 1012.8
20260905231710 28 90 4.8 6.4 0.00 0.00 0.00 73 1012.9
20260905231206 28 113 3.2 8.0 0.00 0.00 0.00 74 1012.9
20260905230702 28 85 3.2 6.4 0.00 0.00 0.00 73 1012.7
20260905230159 28 86 4.8 6.4 0.00 0.00 0.00 73 1012.9
20260905225659 28 111 0.0 4.8 0.00 0.00 0.00 73 1013.0
20260905225154 27 172 1.6 6.4 0.00 0.00 0.00 75 1012.8
20260905224654 28 84 3.2 8.0 0.00 0.00 0.00 74 1012.5
20260905224148 28 80 6.4 6.4 0.00 0.00 0.00 74 1012.4
20260905223645 28 97 4.8 4.8 0.00 0.00 0.00 74 1012.4
20260905223142 28 35 1.6 4.8 0.00 0.00 0.00 75 1012.6
20260905222637 28 95 3.2 11.3 0.00 0.00 0.00 74 1012.7
20260905222131 28 81 0.0 12.9 0.00 0.00 0.00 73 1012.6
20260905221627 28 103 0.0 12.9 0.00 0.00 0.00 73 1012.4
20260905221124 28 90 3.2 11.3 0.00 0.00 0.00 74 1012.6
20260905220619 28 257 0.0 11.3 0.00 0.00 0.00 75 1012.7
20260905220115 28 71 6.4 9.7 0.00 0.00 0.00 74 1012.7
20260905215614 28 110 3.2 6.4 0.00 0.00 0.00 75 1012.7
20260905215110 28 117 4.8 8.0 0.00 0.00 0.00 74 1012.4
20260905214606 29 73 3.2 6.4 0.00 0.00 0.00 73 1012.3
20260905214106 29 76 4.8 8.0 0.00 0.00 0.00 73 1012.5
20260905213601 30 77 3.2 6.4 0.00 0.00 0.00 72 1012.3
20260905213056 29 101 4.8 12.9 0.00 0.00 0.00 72 1012.2
20260905212551 30 82 8.0 8.0 0.00 0.00 0.00 71 1012.3
20260905212051 30 104 4.8 6.4 0.00 0.00 0.00 72 1012.5
20260905211546 30 125 0.0 11.3 0.00 0.00 0.00 72 1012.4
20260905211042 30 106 4.8 9.7 0.00 0.00 0.00 72 1012.3
20260905210537 30 101 3.2 9.7 0.00 0.00 0.00 72 1012.4
20260905210032 30 80 3.2 8.0 0.00 0.00 0.00 72 1012.2
20260905205531 30 60 4.8 6.4 0.00 0.00 0.00 72 1012.3
20260905205030 30 90 1.6 8.0 0.00 0.00 0.00 73 1012.2
20260905204526 30 294 1.6 4.8 0.00 0.00 0.00 73 1012.4
20260905204021 30 74 4.8 8.0 0.00 0.00 0.00 72 1012.1
20260905203521 30 86 4.8 6.4 0.00 0.00 0.00 73 1012.2
20260905203016 30 81 0.0 6.4 0.00 0.00 0.00 73 1012.1
20260905202511 30 90 3.2 9.7 0.00 0.00 0.00 72 1012.4
20260905202007 31 111 0.0 9.7 0.00 0.00 0.00 71 1012.3
20260905201502 30 90 0.0 4.8 0.00 0.00 0.00 71 1012.2
20260905201001 31 94 4.8 8.0 0.00 0.00 0.00 71 1012.3
20260905200457 31 81 3.2 6.4 0.00 0.00 0.00 69 1012.4
20260905195955 31 81 0.0 6.4 0.00 0.00 0.00 70 1012.1
20260905195451 31 107 4.8 6.4 0.00 0.00 0.00 71 1012.2
20260905194946 31 90 0.0 4.8 0.00 0.00 0.00 72 1012.2
20260905194446 30 84 3.2 6.4 0.00 0.00 0.00 72 1012.0
20260905193940 31 90 3.2 4.8 0.00 0.00 0.00 73 1012.2
20260905193435 30 81 3.2 4.8 0.00 0.00 0.00 73 1012.3
20260905192930 31 90 4.8 8.0 0.00 0.00 0.00 71 1012.4
20260905192425 30 106 3.2 6.4 0.00 0.00 0.00 73 1012.1
20260905191920 31 67 3.2 9.7 0.00 0.00 0.00 72 1012.4
20260905191419 31 90 1.6 8.0 0.00 0.00 0.00 71 1012.3
20260905190914 31 85 3.2 4.8 0.00 0.00 0.00 72 1012.4
20260905190412 31 121 0.0 11.3 0.00 0.00 0.00 69 1012.2
20260905185910 31 71 3.2 4.8 0.00 0.00 0.00 70 1012.4
20260905185406 31 72 4.8 9.7 0.00 0.00 0.00 71 1012.5
20260905184904 32 106 1.6 8.0 0.00 0.00 0.00 69 1012.7
20260905184359 31 96 3.2 8.0 0.00 0.00 0.00 70 1012.3
20260905183857 32 74 1.6 8.0 0.00 0.00 0.00 68 1012.4
20260905183352 32 74 0.0 4.8 0.00 0.00 0.00 70 1012.5
20260905182847 32 60 0.0 4.8 0.00 0.00 0.00 68 1012.5
20260905182341 32 293 0.0 8.0 0.00 0.00 0.00 68 1012.6
20260905181837 32 300 4.8 4.8 0.00 0.00 0.00 69 1012.4
20260905181337 32 90 0.0 4.8 0.00 0.00 0.00 72 1012.5
20260905180836 31 126 0.0 4.8 0.00 0.00 0.00 71 1012.7
20260905180331 31 96 0.0 4.8 0.00 0.00 0.00 72 1012.5
20260905175826 31 78 0.0 3.2 0.00 0.00 0.00 73 1012.5
20260905175326 31 84 0.0 8.0 0.00 0.00 0.00 72 1012.6
20260905174821 31 86 4.8 8.0 0.00 0.00 0.00 70 1012.5
20260905174317 31 332 4.8 4.8 0.00 0.00 0.00 71 1012.6
20260905173812 31 105 1.6 3.2 0.00 0.00 0.00 73 1012.5
20260905173308 31 99 0.0 6.4 0.00 0.00 0.00 74 1012.6
20260905172808 31 201 0.0 3.2 0.00 0.00 0.00 73 1012.8
20260905172306 31 82 0.0 8.0 0.00 0.00 0.00 74 1012.8
20260905171803 30 98 0.0 8.0 0.00 0.00 0.00 76 1012.5
20260905171259 30 90 6.4 6.4 0.00 0.00 0.00 76 1012.8
20260905170755 30 98 0.0 3.2 0.00 0.00 0.00 75 1012.8
20260905170251 31 90 0.0 4.8 0.00 0.00 0.00 76 1012.8
20260905165749 30 77 0.0 6.4 0.00 0.00 0.00 76 1012.9
20260905165246 30 81 1.6 6.4 0.00 0.00 0.00 78 1012.8
20260905164746 30 90 0.0 8.0 0.00 0.00 0.00 77 1012.9
20260905164240 30 90 0.0 4.8 0.00 0.00 0.00 78 1013.0
20260905163736 30 111 0.0 6.4 0.00 0.00 0.00 77 1013.1
20260905163232 30 90 3.2 4.8 0.00 0.00 0.00 78 1012.6
20260905162728 30 270 3.2 4.8 0.00 0.00 0.00 78 1012.9
20260905162227 30 86 0.0 8.0 0.00 0.00 0.00 79 1013.1
20260905161723 30 90 0.0 6.4 0.00 0.00 0.00 78 1013.1
20260905161221 30 86 0.0 11.3 0.00 0.00 0.00 79 1012.9
20260905160719 30 73 3.2 6.4 0.00 0.00 0.00 79 1013.0
20260905160214 29 74 0.0 4.8 0.00 0.00 0.00 80 1013.2
20260905155708 29 74 3.2 6.4 0.00 0.00 0.00 79 1012.8
20260905155207 29 90 6.4 9.7 0.00 0.00 0.00 80 1012.8
20260905154701 29 120 0.0 4.8 0.00 0.00 0.00 80 1012.7
20260905154157 30 117 4.8 8.0 0.00 0.00 0.00 80 1012.7
20260905153653 30 73 0.0 3.2 0.00 0.00 0.00 81 1012.6
20260905153148 30 94 0.0 8.0 0.00 0.00 0.00 79 1012.7
20260905152643 30 121 3.2 11.3 0.00 0.00 0.00 79 1012.5
20260905152138 30 103 1.6 4.8 0.00 0.00 0.00 80 1012.6
20260905151633 30 90 0.0 4.8 0.00 0.00 0.00 80 1012.4
20260905151128 30 66 0.0 4.8 0.00 0.00 0.00 82 1012.5
20260905150624 29 63 0.0 4.8 0.00 0.00 0.00 82 1012.4
20260905150122 29 77 3.2 6.4 0.00 0.00 0.00 83 1012.3
20260905145620 29 110 4.8 4.8 0.00 0.00 0.00 83 1012.4
20260905145119 28 90 0.0 4.8 0.00 0.00 0.00 84 1012.5
20260905144614 29 345 0.0 6.4 0.00 0.00 0.00 83 1012.4
20260905144113 29 77 0.0 3.2 0.00 0.00 0.00 83 1012.7
20260905143608 29 90 3.2 8.0 0.00 0.00 0.00 82 1012.2
20260905143103 29 114 0.0 6.4 0.00 0.00 0.00 82 1012.1
20260905142601 28 90 0.0 6.4 0.00 0.00 0.00 84 1012.1
20260905142056 28 90 3.2 4.8 0.00 0.00 0.00 84 1012.4
20260905141556 28 90 4.8 6.4 0.00 0.00 0.00 86 1012.0
20260905141052 28 77 1.6 4.8 0.00 0.00 0.00 88 1012.1
20260905140548 27 93 6.4 8.0 0.00 0.00 0.00 88 1011.8
20260905140046 28 90 3.2 8.0 0.00 0.00 0.00 88 1011.7
20260905135542 27 96 3.2 4.8 0.00 0.00 0.00 88 1011.7
20260905135036 27 82 0.0 3.2 0.00 0.00 0.00 88 1011.8
20260905134531 28 117 1.6 6.4 0.00 0.00 0.00 88 1012.1
20260905134029 27 90 0.0 6.4 0.00 0.00 0.00 88 1012.2
20260905133525 28 69 0.0 3.2 0.00 0.00 0.00 87 1012.2
20260905133020 28 279 0.0 4.8 0.00 0.00 0.00 87 1012.4
20260905132520 27 81 0.0 4.8 0.00 0.00 0.00 88 1012.4
20260905132020 27 277 4.8 6.4 0.00 0.00 0.00 88 1012.3
20260905131515 27 215 1.6 3.2 0.00 0.00 0.00 88 1012.1
20260905131010 27 346 0.0 4.8 0.00 0.00 0.00 88 1012.1
20260905130509 27 254 0.0 1.6 0.00 0.00 0.00 89 1011.9
20260905130005 27 270 0.0 3.2 0.00 0.00 0.00 89 1011.8
20260905125459 27 287 0.0 6.4 0.00 0.00 0.00 89 1011.8
20260905124954 27 294 3.2 4.8 0.00 0.00 0.00 88 1011.8
20260905124451 27 285 1.6 4.8 0.00 0.00 0.00 88 1011.6
20260905123946 27 263 0.0 3.2 0.00 0.00 0.00 89 1011.6
20260905123443 27 270 1.6 3.2 0.00 0.00 0.00 89 1011.7
20260905122943 27 338 0.0 4.8 0.00 0.00 0.00 90 1011.6
20260905122443 27 262 0.0 3.2 0.00 0.00 0.00 92 1011.3
20260905121938 26 303 3.2 3.2 0.00 0.00 0.00 94 1011.2